Change the Weather History Date:

Monday, November 4, 2013

  Actual Average (KLOT) Record (KLOT)
Temperature  
Mean Temperature 48 °F 46 °F  
Max Temperature 56 °F 55 °F 73 °F (2003)
Min Temperature 40 °F 38 °F 19 °F (1995)
Degree Days  
Heating Degree Days 17 19  
Month to date heating degree days 74  
Since 1 July heating degree days 561  
Cooling Degree Days 0 0  
Month to date cooling degree days 0  
Year to date cooling degree days 862  
Moisture  
Dew Point 38 °F    
Average Humidity 67    
Maximum Humidity 82    
Minimum Humidity 50    
Precipitation  
Precipitation 0.00 in 0.13 in 1.07 in (2003)
Month to date precipitation 0.49  
Year to date precipitation 34.85  
Snow  
Snow 0.00 in 0.00 in T in (2012)
Month to date snowfall 0.0  
Since 1 July snowfall 0.0  
Since 1 September snowfall 0.0  
Snow Depth -    
Sea Level Pressure  
Sea Level Pressure 30.21 in    
Wind  
Wind Speed 9 mph (SSE)    
Max Wind Speed 21 mph    
Max Gust Speed 28 mph    
Visibility 10 miles    
Events      
T = Trace of Precipitation, MM = Missing Value Source: NWS Daily Summary

Daily Weather History Graph

Daily Weather History Graph

Search for Another Location

Airport or City:

Trip Planner

Search our weather history database for the weather conditions in past years. The results will help you decide how hot, cold, wet, or windy it might be!

Date:

Astronomy

Nov. 04, 2013 Rise Set
Actual Time 6:28 AM CST 4:43 PM CST
Civil Twilight 5:59 AM CST 5:12 PM CST
Nautical Twilight 5:26 AM CST 5:45 PM CST
Astronomical Twilight 4:54 AM CST 6:17 PM CST
Moon 7:39 AM CST (11/4) 5:47 PM CST (11/4)
Length of Visible Light 11h 13m
Length of Day
10h 15m
New Moon, 2% of the Moon is Illuminated
Nov 4
New Moon
Nov 9
First Quarter
Nov 17
Full
Nov 25
Last Quarter
Dec 2
New

Hourly Weather History & Observations

Time (CST) Temp. Windchill Dew Point Humidity Pressure Visibility Wind Dir Wind Speed Gust Speed Precip Events Conditions
12:15 AM 41.4 °F 37.6 °F 36.0 °F 81% 30.29 in 10.0 mi SE 5.8 mph - N/A   Clear
12:35 AM 41.5 °F 37.1 °F 36.0 °F 81% 30.28 in 10.0 mi SE 6.9 mph - N/A   Clear
12:55 AM 41.7 °F 36.1 °F 36.1 °F 81% 30.27 in 10.0 mi SE 9.2 mph - N/A   Clear
1:15 AM 41.7 °F 35.6 °F 36.0 °F 80% 30.27 in 10.0 mi SE 10.4 mph - N/A   Clear
1:35 AM 41.5 °F 36.4 °F 36.1 °F 81% 30.26 in 10.0 mi SE 8.1 mph - N/A   Clear
1:55 AM 41.5 °F 35.9 °F 36.0 °F 81% 30.27 in 10.0 mi SE 9.2 mph - N/A   Clear
2:15 AM 41.2 °F 36.0 °F 35.6 °F 81% 30.27 in 10.0 mi SE 8.1 mph - N/A   Clear
2:35 AM 40.6 °F 34.8 °F 35.6 °F 82% 30.27 in 10.0 mi SE 9.2 mph - N/A   Clear
2:55 AM 41.0 °F 35.8 °F 35.6 °F 81% 30.26 in 10.0 mi SSE 8.1 mph - N/A   Clear
3:15 AM 41.4 °F 36.8 °F 35.1 °F 78% 30.27 in 10.0 mi SE 6.9 mph - N/A   Clear
3:35 AM 41.9 °F 37.5 °F 35.1 °F 77% 30.27 in 10.0 mi SE 6.9 mph - N/A   Clear
3:55 AM 41.7 °F 38.0 °F 35.1 °F 77% 30.27 in 10.0 mi SE 5.8 mph - N/A   Clear
4:15 AM 41.5 °F 37.1 °F 35.1 °F 78% 30.25 in 10.0 mi SE 6.9 mph - N/A   Clear
4:35 AM 41.2 °F 36.0 °F 35.2 °F 79% 30.25 in 10.0 mi SE 8.1 mph - N/A   Clear
4:55 AM 40.8 °F 36.2 °F 35.1 °F 80% 30.26 in 10.0 mi SE 6.9 mph - N/A   Clear
5:15 AM 40.6 °F 35.4 °F 35.1 °F 80% 30.25 in 10.0 mi SE 8.1 mph - N/A   Clear
5:35 AM 41.0 °F 35.2 °F 35.2 °F 80% 30.25 in 10.0 mi SE 9.2 mph - N/A   Clear
5:55 AM 41.2 °F 35.5 °F 35.2 °F 79% 30.24 in 10.0 mi SE 9.2 mph - N/A   Clear
6:15 AM 41.2 °F 35.0 °F 35.2 °F 79% 30.24 in 10.0 mi SE 10.4 mph - N/A   Clear
6:35 AM 41.4 °F 35.7 °F 35.2 °F 79% 30.24 in 10.0 mi SE 9.2 mph - N/A   Clear
6:55 AM 41.5 °F 36.4 °F 35.6 °F 79% 30.24 in 10.0 mi SE 8.1 mph - N/A   Clear
7:15 AM 42.1 °F 36.6 °F 35.6 °F 78% 30.24 in 10.0 mi SE 9.2 mph - N/A   Clear
7:35 AM 43.0 °F 37.7 °F 36.0 °F 76% 30.24 in 10.0 mi SE 9.2 mph - N/A   Clear
7:55 AM 44.4 °F 38.2 °F 36.5 °F 74% 30.23 in 10.0 mi SE 12.7 mph 19.6 mph N/A   Clear
8:15 AM 45.7 °F 40.2 °F 36.7 °F 71% 30.24 in 10.0 mi SSE 11.5 mph - N/A   Clear
8:35 AM 46.0 °F 39.9 °F 36.3 °F 69% 30.24 in 10.0 mi SSE 13.8 mph 19.6 mph N/A   Clear
8:55 AM 47.3 °F - 36.3 °F 66% 30.23 in 10.0 mi SSE 12.7 mph 24.2 mph N/A   Clear
9:15 AM 47.5 °F - 36.1 °F 65% 30.23 in 10.0 mi SSE 13.8 mph 24.2 mph N/A   Clear
9:35 AM 48.2 °F - 36.7 °F 64% 30.22 in 10.0 mi SSE 10.4 mph 20.7 mph N/A   Clear
9:55 AM 49.5 °F - 37.2 °F 63% 30.22 in 10.0 mi SSE 10.4 mph 16.1 mph N/A   Clear
10:15 AM 51.4 °F - 36.7 °F 57% 30.22 in 10.0 mi South 16.1 mph 21.9 mph N/A   Clear
10:35 AM 52.2 °F - 36.7 °F 56% 30.21 in 10.0 mi South 15.0 mph 21.9 mph N/A   Clear
10:55 AM 52.0 °F - 37.0 °F 57% 30.21 in 10.0 mi South 11.5 mph 21.9 mph N/A   Clear
11:15 AM 53.6 °F - 37.8 °F 55% 30.20 in 10.0 mi South 15.0 mph 19.6 mph N/A   Clear
11:35 AM 53.6 °F - 37.4 °F 54% 30.17 in 10.0 mi South 15.0 mph 20.7 mph N/A   Clear
11:55 AM 52.9 °F - 37.2 °F 55% 30.16 in 10.0 mi SSE 13.8 mph 20.7 mph N/A   Clear
12:15 PM 53.2 °F - 37.4 °F 55% 30.16 in 10.0 mi South 15.0 mph 21.9 mph N/A   Clear
12:35 PM 54.5 °F - 37.4 °F 52% 30.15 in 10.0 mi SSE 11.5 mph 17.3 mph N/A   Clear
12:55 PM 55.0 °F - 36.7 °F 50% 30.14 in 10.0 mi South 15.0 mph 21.9 mph N/A   Clear
1:15 PM 55.8 °F - 37.6 °F 51% 30.14 in 10.0 mi South 15.0 mph 23.0 mph N/A   Clear
1:35 PM 55.8 °F - 37.6 °F 51% 30.14 in 10.0 mi South 20.7 mph 27.6 mph N/A   Clear
1:55 PM 55.6 °F - 37.8 °F 51% 30.15 in 10.0 mi SSW 16.1 mph 23.0 mph N/A   Clear
2:15 PM 55.4 °F - 38.7 °F 53% 30.15 in 10.0 mi South 10.4 mph 19.6 mph N/A   Scattered Clouds
2:35 PM 55.6 °F - 39.6 °F 55% 30.14 in 10.0 mi South 8.1 mph 21.9 mph N/A   Scattered Clouds
2:55 PM 55.6 °F - 39.4 °F 55% 30.13 in 10.0 mi South 10.4 mph 19.6 mph N/A   Scattered Clouds
3:15 PM 55.4 °F - 39.6 °F 55% 30.12 in 10.0 mi South 11.5 mph 18.4 mph N/A   Scattered Clouds
3:35 PM 56.1 °F - 40.3 °F 55% 30.13 in 10.0 mi South 9.2 mph 16.1 mph N/A   Scattered Clouds
3:55 PM 56.3 °F - 39.9 °F 54% 30.13 in 10.0 mi South 13.8 mph 25.3 mph N/A   Clear
4:15 PM 55.4 °F - 40.3 °F 57% 30.14 in 10.0 mi South 11.5 mph 26.5 mph N/A   Clear
4:35 PM 54.5 °F - 40.3 °F 59% 30.14 in 10.0 mi South 11.5 mph 20.7 mph N/A   Clear
4:55 PM 54.0 °F - 40.6 °F 61% 30.14 in 10.0 mi South 9.2 mph - N/A   Clear
5:15 PM 54.1 °F - 41.0 °F 61% 30.15 in 10.0 mi South 9.2 mph 19.6 mph N/A   Clear
5:35 PM 54.1 °F - 41.4 °F 62% 30.16 in 10.0 mi South 11.5 mph - N/A   Mostly Cloudy
5:55 PM 54.1 °F - 41.7 °F 63% 30.16 in 10.0 mi South 10.4 mph 17.3 mph N/A   Overcast
6:15 PM 54.0 °F - 41.9 °F 64% 30.17 in 10.0 mi South 12.7 mph 17.3 mph N/A   Overcast
6:35 PM 54.0 °F - 41.9 °F 64% 30.18 in 10.0 mi South 11.5 mph 17.3 mph N/A   Overcast
6:55 PM 54.5 °F - 41.7 °F 62% 30.18 in 10.0 mi South 8.1 mph 18.4 mph N/A   Overcast
7:15 PM 54.0 °F - 41.7 °F 63% 30.19 in 10.0 mi SSW 13.8 mph 18.4 mph N/A   Overcast
7:35 PM 53.8 °F - 41.5 °F 63% 30.19 in 10.0 mi SSW 16.1 mph 19.6 mph N/A   Overcast
7:55 PM 53.2 °F - 41.9 °F 65% 30.19 in 10.0 mi South 10.4 mph 16.1 mph N/A   Overcast
8:15 PM 53.1 °F - 41.9 °F 66% 30.19 in 10.0 mi South 9.2 mph - N/A   Overcast
8:35 PM 52.7 °F - 42.1 °F 67% 30.19 in 10.0 mi South 8.1 mph 16.1 mph N/A   Overcast
8:55 PM 52.2 °F - 41.9 °F 68% 30.20 in 10.0 mi South 9.2 mph - N/A   Mostly Cloudy
9:15 PM 52.2 °F - 41.9 °F 68% 30.20 in 10.0 mi SSW 9.2 mph - N/A   Mostly Cloudy
9:35 PM 52.3 °F - 42.1 °F 68% 30.21 in 10.0 mi South 10.4 mph - N/A   Overcast
9:55 PM 52.2 °F - 42.3 °F 69% 30.21 in 10.0 mi SSW 8.1 mph - N/A   Overcast
10:15 PM 52.2 °F - 42.3 °F 69% 30.21 in 10.0 mi SSW 6.9 mph - N/A   Overcast
10:35 PM 52.0 °F - 42.4 °F 70% 30.21 in 10.0 mi SSW 5.8 mph - N/A   Overcast
10:55 PM 51.8 °F - 42.8 °F 71% 30.21 in 10.0 mi SSW 6.9 mph - N/A   Overcast
11:15 PM 51.8 °F - 42.8 °F 71% 30.22 in 10.0 mi SSW 4.6 mph - N/A   Overcast
11:35 PM 51.8 °F - 42.8 °F 71% 30.22 in 10.0 mi SSW 4.6 mph - N/A   Overcast
11:55 PM 51.8 °F - 42.6 °F 71% 30.22 in 10.0 mi SSW 6.9 mph - N/A   Overcast